Regional Weather Roundup
Issued by NWS Kansas City/Pleasant Hill, MO

Home | Current Version | Previous Version | Graphics & Text | Print | Product List | Glossary Off
Versions: 1 2 3 4 5 6 7 8 9 10 11 12 13 14 15 16 17 18 19 20 21 22 23 24 25 26 27 28 29 30 31 32 33 34 35 36 37 38 39 40 41 42 43 44 45 46 47 48 49 50

879
ASUS43 KEAX 240510
RWREAX

WEATHER ROUNDUP FOR EASTERN KANSAS AND NORTHWEST MISSOURI
NATIONAL WEATHER SERVICE KANSAS CITY/PLEASANT HILL MO
1100 PM CST THU FEB 23 2017

KSZ040-057-103>105-MOZ028-029-037-043-240600-
...KANSAS CITY METROPOLITAN AREA...

CITY           SKY/WX    TMP DP  RH WIND       PRES   REMARKS
K.C. INTL      CLOUDY    49  47  93 NW9       29.38R FOG
K.C. DOWNTOWN  PTCLDY    50  47  89 N7        29.35F
LEES SUMMIT    CLOUDY    50  48  93 SE17      29.34F FOG
OLATHE - IXD   MOCLDY    49  47  93 W20G26    29.41R
OLATHE - OJC   CLOUDY    50  49  96 SE6G17    29.35F
LAWRENCE       CLOUDY    50  46  86 NW21      29.45R FOG

$$

MOZ001>008-011>017-020>025-030>033-038>040-044>046-053-054-240600-
...NORTHERN AND CENTRAL MISSOURI...

CITY           SKY/WX    TMP DP  RH WIND       PRES   REMARKS
ST. JOSEPH     CLOUDY    47  47 100 NW16      29.47R FOG
MOSBY          CLEAR     48  46  93 CALM      29.38R
WARRENSBURG    CLOUDY    52  50  93 S22G30    29.39R
WHITEMAN AFB   MOCLDY    63  54  72 W35G47    29.42R THUNDER
CLINTON        CLOUDY    64  50  59 W7        29.43R
SEDALIA        PTCLDY    67  52  58 S13       29.42R
WARSAW         NOT AVBL
CHILLICOTHE      N/A     50  48  93 NE7       29.37F
KIRKSVILLE     CLEAR     50  49  96 E10       29.42F FOG

$$

MOZ041-047>049-056>058-063>065-088>090-097-240600-
...EASTERN AND SOUTHERN MISSOURI...

CITY           SKY/WX    TMP DP  RH WIND       PRES   REMARKS
ST. LOUIS INTL MOCLDY    66  54  65 S10       29.52F
SPIRIT OF STL  CLOUDY    65  56  72 CALM      29.50F
COLUMBIA       CLEAR     63  56  78 SE15      29.42F
JEFFERSON CITY CLEAR     61  54  77 E10       29.43F
ROLLA          CLEAR     64  56  75 S18G28    29.47F
OSAGE BEACH    CLEAR     67  55  65 S10G21    29.43F
SPRINGFIELD    CLEAR     65  50  58 S13       29.45S
BRANSON        CLEAR     68  52  56 S12G22    29.50F
JOPLIN         PTCLDY    72  49  44 S24G33    29.39S
WEST PLAINS    CLEAR     63  55  75 S12       29.57S

$$

IAZ060-094-KSZ022-034>040-054-083-096-NEZ052-066-093-240600-
...KANSAS...SOUTHEAST NEBRASKA AND IOWA...

CITY           SKY/WX    TMP DP  RH WIND       PRES   REMARKS
TOPEKA         LGT RAIN  45  43  93 NW22G37   29.50R FOG
MANHATTAN      CLOUDY    44  38  79 N7        29.53R
EMPORIA        CLOUDY    45  40  82 NW20G36   29.50R
CHANUTE        CLOUDY    70  46  42 W13       29.38R
WICHITA        CLOUDY    43  37  79 N20       29.58R WCI  34
OMAHA          LGT SNOW  33  29  85 N15       29.63R FOG     WCI  23
LINCOLN        LGT SNOW  33  31  92 NE23G35   29.58F FOG     WCI  21
FALLS CITY     LGT RAIN  39  39 100 N18G40    29.54R WCI  30
LAMONI         CLOUDY    44  43  96 NE16G28   29.41F FOG
DES MOINES     LGT RAIN  42  39  89 NE20G30   29.51F FOG     WCI  33

$$





USA.gov is the U.S. government's official web portal to all federal, state and local government web resources and services.